Retour au catalogue

TITAN 3C TRANSTAGE DEB

ActifHEO
NORAD 21692·DEBRIS·🇺🇸 United States

Lancé Dec 21, 1965 depuis Cape Canaveral Space Force Station

Loading…

Prochains Passages (prochaines 24 heures)

TLE

VieillissantSource: Space-Track

Époque: Aug 29, 2026, 06:53 UTC

1 21692U 65108AF  26241.28736784  .00000219  00000-0  11098-2 0  9993
2 21692  27.5922 123.0506 6150039 223.1162 346.8786  3.60877574167134

Suivez TITAN 3C TRANSTAGE DEB en temps réel avec AllMySat

Download on the App Store